Temp
18 21 21 20 19 19 19 20 19 19 18 19 18 18 19 18 17 16 17 16 16 16 16 16 17 17 16 16 16 16 16 16 15 14 13 13 13 14 14 14 14 13 12 12
20 21 20 19 19 20 20 19 19 19 18 18 18 19 19 19 19 18 18 18 17 16 17 15 16 16 17 17 17 16 16 16 16 15 15 14 15 15 14 15 14 14 13 13
20 21 19 21 20 20 19 20 19 20 18 17 17 22 22 21 19 19 18 16 16 17 18 17 15 16 17 17 18 18 18 18 17 17 16 14 13 13 14 15 15 16 15 14
20 20 20 20 20 19 21 19 19 19 19 22 18 25 22 21 21 21 21 19 18 17 16 15 15 16 18 20 19 19 19 18 18 17 16 15 14 13 15 16 16 15 15 14
20 19 20 20 20 19 20 18 18 18 18 19 20 22 24 20 24 24 23 21 20 18 17 17 16 18 19 19 19 19 19 18 18 18 17 16 15 15 15 15 15 15 15 14
19 18 19 20 18 19 16 18 16 15 17 22 19 21 24 24 24 24 22 21 20 19 18 17 17 18 19 19 19 19 19 20 19 18 17 17 16 15 15 15 15 16 15 15
19 19 18 18 18 18 18 18 20 23 22 23 17 19 24 22 21 23 23 22 20 19 19 18 18 17 18 19 20 19 19 20 19 18 18 17 17 16 15 15 15 14 15 15
18 20 17 18 19 19 17 18 20 24 22 22 18 21 25 20 20 19 20 20 19 19 18 18 18 18 19 20 20 20 20 20 19 19 19 18 18 16 16 16 16 15 15 15
17 19 17 17 17 18 18 18 17 17 15 19 20 21 22 19 20 20 20 20 21 20 19 19 18 19 20 20 21 21 21 21 20 20 19 19 18 17 17 17 16 16 15 15
19 19 17 17 17 16 18 17 19 17 21 23 21 20 24 21 21 20 20 20 20 21 19 18 18 19 20 21 21 21 21 21 21 20 19 19 18 18 17 16 16 16 16 15
16 19 17 17 16 17 16 17 15 16 17 22 23 24 21 23 22 22 21 20 20 20 19 19 18 19 20 21 21 21 21 21 21 20 20 20 19 18 17 17 17 17 16 15
17 16 16 17 16 15 16 17 17 19 19 14 16 22 20 19 20 20 20 19 19 18 18 18 18 18 19 20 21 21 21 21 21 21 21 21 20 19 19 18 18 17 16 15
16 17 18 19 17 15 16 15 14 13 13 16 19 24 19 17 18 17 19 19 18 18 18 17 17 17 19 20 21 21 21 22 22 22 21 21 20 20 19 18 17 17 16 16
18 15 18 20 21 15 15 14 14 17 17 17 17 22 23 21 19 19 17 17 18 18 17 17 16 17 19 20 21 21 21 22 22 21 21 21 20 20 19 18 17 17 16 16
17 18 15 16 18 16 17 16 13 16 18 22 22 19 23 22 20 20 20 17 17 17 17 16 16 17 18 19 20 21 21 22 21 21 21 21 21 20 19 18 17 16 16 15
14 18 15 19 17 16 17 16 15 16 16 15 16 19 19 20 19 19 20 18 18 18 18 17 16 16 18 19 21 21 21 21 21 21 21 20 20 19 18 18 17 16 16 15
14 14 16 18 17 17 17 17 15 15 15 19 19 24 18 20 18 20 20 17 19 18 18 18 17 17 19 21 22 21 21 21 21 20 21 20 19 18 18 17 17 16 16 15
13 14 14 16 17 18 22 17 18 20 21 16 18 20 19 21 20 19 17 18 19 17 17 17 17 17 20 21 21 21 20 20 20 20 20 19 18 17 17 16 16 16 15 15
13 12 12 16 15 17 20 17 17 17 21 19 19 22 19 17 19 20 19 17 19 19 18 18 20 20 21 21 21 20 19 19 19 20 19 18 17 16 16 16 15 15 15 14
11 12 16 11 16 18 19 19 15 20 21 20 19 20 21 17 20 23 18 18 18 17 18 19 20 20 19 20 19 19 19 19 19 18 17 17 16 15 15 15 14 14 13 13
12 11 15 13 14 15 16 17 16 21 23 22 18 20 15 19 21 20 18 17 17 15 16 19 19 18 19 19 19 18 18 18 17 17 16 16 15 15 14 14 13 13 12 12
13 12 12 10 14 18 15 15 21 21 20 21 17 16 15 17 17 17 18 17 15 14 14 17 17 17 18 18 18 18 17 17 17 16 15 15 15 14 13 13 13 12 11 11
17 16 18 16 18 18 14 18 17 16 19 20 19 16 15 15 16 16 17 16 15 15 15 16 17 17 17 18 17 16 17 17 16 15 15 14 14 14 13 12 12 12 11 9
12 12 15 17 15 15 15 17 15 15 18 20 17 16 14 16 15 16 16 15 15 15 15 16 17 17 17 16 16 16 16 15 14 14 13 13 13 13 13 12 11 10 9 8
15 13 13 14 16 15 15 14 19 16 14 16 17 16 15 15 15 15 14 14 14 15 15 16 16 16 17 17 16 15 14 13 13 13 12 12 12 11 11 11 10 9 9 7
12 13 18 21 16 21 22 18 18 14 15 16 15 16 15 14 15 14 14 14 14 14 15 16 16 16 15 15 14 13 13 12 12 12 12 11 11 10 9 8 9 9 8 7
Height
855 859 864 862 864 866 871 874 876 869 867 867 867 864 847 842 844 843 842 842 842 841 840 841 843 846 849 852 855 857 860 863 865 867 869 870 869 870 871 871 872 873 874 875
861 865 858 860 862 864 868 873 874 870 866 868 868 856 846 840 837 837 836 836 837 837 835 836 838 841 843 845 848 851 853 856 858 860 862 863 863 864 865 866 866 867 867 868
864 858 858 857 863 867 870 873 874 874 870 870 870 852 843 836 837 834 834 834 833 832 830 832 834 836 838 839 841 844 846 849 851 854 856 857 859 859 858 859 859 860 862 863
859 855 857 861 863 867 870 867 870 873 874 868 871 858 847 841 836 832 828 829 829 828 828 829 829 829 831 832 836 839 842 844 846 848 850 851 852 852 849 851 853 855 856 857
860 860 861 863 861 863 867 867 871 874 878 875 869 865 838 844 832 828 825 825 824 823 824 824 824 824 826 829 831 834 837 839 841 843 845 846 846 845 846 846 847 848 848 849
857 855 856 858 863 863 870 871 877 882 881 872 872 868 844 837 828 825 823 822 822 821 821 821 821 821 823 826 828 830 832 833 837 838 839 839 839 840 841 840 840 840 840 841
861 860 859 858 866 867 870 876 881 873 875 869 878 875 836 826 824 820 820 819 820 820 819 819 819 820 822 823 824 826 827 828 831 832 833 833 833 834 833 833 833 833 832 831
871 871 864 859 860 865 874 873 879 867 877 870 877 867 826 825 820 821 820 819 819 818 818 817 817 818 819 819 821 822 824 825 827 827 827 827 828 827 827 826 825 825 824 824
871 864 861 860 860 862 872 876 873 886 898 882 866 846 823 823 823 821 820 819 817 815 815 815 815 815 815 816 818 819 820 821 822 822 822 822 822 821 820 820 819 817 817 816
848 861 864 863 861 865 865 869 875 882 877 870 862 858 829 824 819 819 819 817 814 812 812 813 812 812 812 813 814 816 816 817 818 818 818 817 817 816 815 814 812 811 811 810
849 850 870 864 866 864 872 873 879 878 879 865 859 835 810 803 804 809 811 811 810 810 810 810 810 809 810 811 812 813 814 814 814 814 814 812 812 811 810 808 807 807 806 806
843 855 869 860 858 860 859 859 862 867 869 889 884 838 803 805 804 805 805 806 808 809 808 808 808 809 810 810 810 810 811 812 812 811 810 809 808 807 805 803 802 801 800 800
837 851 862 856 861 862 860 860 862 869 875 876 865 826 807 808 807 806 805 805 805 806 807 807 808 807 807 808 808 809 809 809 809 808 807 806 805 803 801 798 797 796 794 793
825 846 841 842 832 846 857 856 859 849 865 860 852 823 804 803 804 803 804 803 802 803 803 804 805 804 804 805 806 806 806 807 807 807 805 804 802 800 796 794 792 790 790 788
828 837 843 838 831 838 837 842 854 850 839 829 819 829 798 795 796 792 792 799 802 801 800 800 800 800 800 801 802 803 804 804 804 803 802 800 798 795 794 791 788 787 785 784
833 833 839 829 833 837 834 834 841 839 840 839 833 815 793 788 789 791 787 792 794 793 791 792 793 794 795 796 797 799 799 800 800 799 798 797 794 792 789 786 784 781 780 779
831 835 838 836 833 835 836 817 827 829 824 811 823 772 786 783 786 778 778 783 781 782 782 782 783 785 786 788 791 793 795 796 796 795 794 792 790 787 784 782 779 777 775 773
826 830 837 840 836 837 789 791 791 789 782 799 790 774 772 768 769 770 769 769 769 771 772 772 774 776 779 782 785 789 791 791 791 790 789 787 786 783 781 778 776 773 771 769
811 824 842 837 842 814 787 792 794 794 776 774 773 757 765 772 771 762 755 758 754 755 757 760 763 767 772 776 780 784 786 787 786 785 784 783 781 778 775 773 772 770 767 765
818 815 812 850 829 819 783 767 773 770 777 746 753 754 754 770 779 748 744 742 744 747 750 755 758 763 768 772 776 780 782 783 782 781 780 779 777 775 774 770 767 765 762 759
819 828 811 828 824 799 771 767 771 788 765 735 741 737 756 757 742 740 739 739 739 739 744 750 755 759 764 768 772 776 778 778 778 777 776 775 774 771 769 766 763 762 759 756
797 811 817 828 816 789 761 769 765 743 733 733 739 740 743 741 740 740 739 740 740 739 742 747 752 757 762 766 769 772 773 774 773 773 772 770 769 766 764 762 759 756 753 750
772 760 769 774 756 743 747 735 734 735 735 732 733 734 738 740 740 741 741 742 741 741 744 747 752 757 761 764 766 767 767 768 769 768 767 766 763 762 761 757 754 751 748 744
761 759 758 756 741 742 739 732 733 732 731 727 728 731 734 734 736 737 739 741 742 743 745 748 751 755 758 761 762 763 763 764 764 763 762 761 759 757 755 751 749 746 744 741
734 746 744 742 734 735 734 732 721 724 728 727 726 726 728 731 731 733 736 740 743 744 746 748 751 753 754 756 758 759 759 759 759 758 756 754 753 752 750 748 745 743 740 737
724 726 723 707 721 713 711 713 712 721 721 718 722 724 723 724 725 728 731 733 736 740 742 744 746 748 750 752 754 755 755 754 754 753 751 749 748 748 747 745 741 739 735 734
Wind_Speed
4 4 2 3 4 4 4 2 2 3 1 3 3 7 15 7 4 7 9 10 11 12 8 13 17 20 23 24 24 25 25 26 26 27 26 27 29 28 27 26 24 23 24 23
4 1 3 5 4 3 2 1 3 4 1 1 4 12 6 4 4 3 5 8 11 7 9 11 14 16 21 23 25 26 27 27 27 29 29 26 24 25 28 28 27 27 26 25
4 1 5 2 2 3 1 2 2 3 4 1 5 5 3 2 3 3 5 5 6 9 11 8 12 17 18 23 25 26 26 26 27 27 29 29 28 28 30 29 28 26 25 26
3 0 4 2 1 4 2 3 2 2 3 2 3 2 4 2 5 3 4 3 6 7 6 7 10 15 21 25 22 24 25 26 26 27 29 31 32 29 31 29 28 26 26 25
3 5 3 2 3 3 3 2 1 1 1 2 1 0 4 2 2 3 2 2 3 3 5 6 9 14 14 15 18 21 23 25 26 27 29 31 33 35 35 35 33 33 31 29
0 1 2 3 3 2 5 3 4 3 1 1 1 1 4 4 5 3 2 2 2 2 2 5 6 8 11 10 13 16 20 22 24 25 27 31 33 33 33 34 34 35 34 33
2 2 0 2 4 2 3 4 2 1 1 4 2 1 8 4 5 5 5 3 2 2 2 2 4 6 8 9 11 14 18 21 22 24 27 29 32 33 34 34 35 34 33 33
6 4 6 3 2 5 4 4 4 4 3 2 2 5 4 5 3 5 4 3 3 3 2 3 3 4 6 9 9 11 15 18 19 21 25 27 29 32 33 33 34 34 34 32
5 3 1 2 1 2 4 3 1 5 2 1 2 6 7 5 5 5 7 4 5 4 3 3 3 5 6 6 6 8 10 13 15 18 21 24 26 28 30 30 30 31 30 30
5 2 1 0 2 3 2 3 3 1 4 4 3 5 4 6 10 7 7 8 6 4 3 3 3 4 4 5 6 7 8 11 12 14 16 19 22 23 25 26 28 28 27 26
6 3 0 1 6 8 3 2 3 1 2 3 2 6 6 12 13 14 11 9 8 6 5 4 4 4 3 2 3 3 3 5 7 9 10 13 15 17 19 22 23 23 23 23
5 4 4 6 1 3 3 6 6 4 4 1 1 6 1 5 7 7 10 9 6 6 6 4 6 4 4 4 4 4 2 3 5 6 8 9 11 13 15 18 19 19 21 21
8 3 2 3 3 3 4 5 4 4 3 6 5 5 2 3 4 7 8 8 7 6 6 5 7 9 9 8 7 5 3 2 3 4 6 8 11 13 16 18 18 18 20 21
6 4 6 7 4 5 5 5 5 5 4 5 6 5 5 7 7 7 8 8 8 7 7 5 6 11 14 12 9 8 6 3 3 4 6 10 13 15 17 19 18 19 19 21
4 6 6 5 3 4 5 5 9 10 6 8 3 10 10 8 10 11 11 7 7 9 8 9 9 11 17 15 12 11 8 6 5 6 8 11 14 17 19 20 19 19 20 20
3 4 5 3 3 6 5 7 12 13 4 9 6 18 13 8 4 6 12 10 13 14 14 12 9 14 17 21 17 13 11 8 7 10 13 14 17 20 21 21 19 18 18 18
7 6 4 5 1 3 7 16 13 7 7 13 13 27 5 6 10 14 13 11 15 14 16 14 13 17 24 26 20 17 13 10 10 13 16 18 19 22 22 21 19 17 16 16
7 7 3 3 2 6 6 2 9 22 16 16 8 15 9 10 6 7 8 10 15 13 13 13 16 21 28 22 19 16 13 11 12 15 17 20 19 22 21 20 20 18 18 18
3 6 3 4 5 7 8 6 9 10 14 20 25 28 8 5 2 15 12 14 16 13 12 17 21 24 24 20 19 16 13 10 11 15 19 19 20 19 18 18 20 20 20 21
4 3 5 4 5 8 7 2 6 5 10 12 23 23 20 7 5 17 6 10 12 16 15 17 16 17 18 16 15 13 10 9 13 16 17 19 17 16 18 20 20 19 17 17
4 0 11 5 6 8 9 4 4 7 7 1 14 19 10 10 9 2 2 4 5 13 20 17 16 17 15 13 13 10 8 11 13 15 17 15 16 18 18 18 17 18 19 20
9 9 5 3 6 18 8 5 11 8 2 2 4 6 11 8 7 4 3 4 4 6 13 17 17 13 13 11 9 7 9 10 14 15 13 14 16 17 17 16 16 19 20 20
9 8 8 12 8 5 9 7 10 2 2 3 2 4 7 8 6 7 4 5 4 9 14 15 15 12 8 8 6 7 8 11 11 12 13 14 16 16 15 16 19 22 22 20
5 4 5 3 6 9 9 13 5 7 5 3 3 5 8 6 8 6 5 5 5 9 11 12 11 8 6 5 4 7 8 9 9 11 14 14 15 16 15 17 18 18 19 18
7 12 8 6 2 2 8 9 16 11 7 7 4 6 7 8 6 6 6 6 6 9 10 12 10 7 6 6 7 7 6 7 10 13 12 13 13 14 16 17 18 17 17 12
6 8 11 13 10 11 13 9 14 10 11 16 9 6 6 9 8 7 7 10 12 12 12 10 8 9 9 8 7 5 7 8 10 13 13 13 14 15 15 16 19 15 11 8
Wind_Direction
8 68 226 205 149 131 127 126 256 259 143 320 251 278 286 300 255 267 248 239 241 242 261 250 241 237 236 237 236 235 236 236 237 239 242 246 249 254 257 259 263 261 259 259
28 218 201 119 132 111 98 71 296 289 305 3 343 294 276 274 267 234 254 249 248 250 253 246 237 230 228 232 233 233 234 235 236 238 243 244 255 261 262 264 263 262 260 258
155 235 133 125 115 113 176 183 235 236 321 197 317 293 324 293 310 280 253 249 253 248 260 255 235 228 227 230 230 231 233 235 236 239 242 245 249 255 259 258 260 262 263 261
221 284 148 116 175 133 294 176 141 301 11 262 2 257 284 294 305 260 278 266 264 259 248 241 231 223 225 233 235 235 236 236 239 240 241 243 247 246 259 264 270 269 264 263
249 160 153 159 221 154 218 103 80 81 85 4 297 98 261 325 225 226 235 261 272 255 231 232 224 225 229 236 237 236 238 238 240 242 244 246 249 256 262 266 268 270 269 263
114 322 153 177 70 74 148 93 50 57 45 335 360 122 268 193 194 194 224 258 271 277 245 239 236 221 226 233 234 229 231 236 239 242 245 247 253 258 262 267 269 272 274 270
346 224 114 135 103 35 84 64 355 353 349 222 18 11 250 232 220 186 180 206 253 271 247 237 222 217 228 232 232 228 229 236 239 244 249 252 256 259 264 270 272 275 277 275
168 265 178 179 196 178 178 159 167 224 205 272 14 233 245 222 232 226 262 261 280 261 242 248 248 235 233 233 233 232 236 246 247 251 255 259 261 262 266 270 273 276 278 282
145 264 68 71 122 130 177 184 166 105 31 343 237 281 280 220 269 240 232 242 234 224 243 262 252 236 236 235 237 244 250 259 261 264 266 266 267 266 269 274 276 277 279 280
197 109 337 151 120 41 163 144 92 18 175 242 262 273 235 203 214 217 222 221 230 233 260 252 244 234 235 239 239 245 257 270 278 278 278 278 278 275 275 275 273 276 280 280
142 136 315 86 204 179 133 188 63 139 166 184 272 259 211 201 195 193 206 209 211 219 229 230 233 223 208 182 191 211 255 285 297 300 298 292 289 283 278 274 277 279 282 282
195 135 175 197 223 171 178 188 163 138 198 101 146 275 224 229 208 189 201 206 209 224 228 232 236 229 208 191 191 203 235 313 328 331 324 315 306 295 286 283 284 285 283 281
182 208 96 2 13 352 218 199 143 106 105 197 151 262 345 269 230 217 210 214 213 218 232 243 244 231 220 213 212 217 228 273 310 322 322 321 313 302 295 290 288 285 283 281
117 164 181 194 188 128 193 189 183 153 148 166 226 284 277 230 222 215 222 225 215 213 217 233 240 230 223 219 217 220 221 240 286 306 321 328 327 317 308 300 295 291 289 284
166 211 184 240 207 174 192 174 180 204 188 188 236 212 238 225 213 217 221 208 214 227 225 222 226 226 225 221 219 220 220 226 258 285 297 311 319 317 315 312 303 299 293 290
187 212 158 261 180 210 245 215 194 217 233 270 296 270 213 231 231 218 220 204 217 223 229 224 221 224 226 220 215 214 217 225 252 279 294 304 311 317 318 316 311 305 301 298
157 142 126 258 49 148 279 221 190 187 207 208 224 243 166 227 223 232 227 210 220 219 228 229 224 219 223 221 213 214 218 232 258 280 295 301 309 316 317 316 312 312 312 309
151 141 144 185 85 243 247 136 188 205 221 208 244 251 203 220 231 251 214 212 223 221 225 226 223 225 222 223 218 216 221 238 267 285 298 307 314 317 319 318 317 318 319 315
174 131 157 172 206 304 287 199 171 176 247 208 222 241 217 203 36 275 225 220 222 206 210 213 220 214 214 218 216 217 223 248 278 292 307 313 318 318 322 325 325 322 320 315
81 60 160 145 201 223 234 260 149 132 270 221 209 233 236 140 224 253 165 221 226 214 209 209 206 202 207 209 203 212 229 268 284 308 310 313 319 325 324 319 318 319 320 317
139 142 205 183 229 277 244 165 171 151 249 53 190 219 160 195 210 273 143 189 216 206 198 199 192 192 191 185 192 216 252 272 308 312 308 314 321 324 321 320 324 322 321 319
164 167 182 127 209 247 164 93 182 214 241 215 202 203 196 206 196 202 202 165 147 132 158 174 171 173 167 175 197 229 268 310 310 301 306 316 321 324 321 319 322 321 322 319
206 186 193 191 212 226 194 204 209 161 209 228 212 210 198 198 215 201 215 169 151 135 138 153 158 156 166 179 215 257 300 307 296 299 308 315 319 323 322 321 324 323 324 323
234 159 203 137 206 222 218 235 264 211 217 224 218 186 178 195 205 201 188 188 170 158 152 154 155 165 180 201 256 292 294 283 289 299 306 314 319 316 314 315 321 322 322 324
182 151 183 257 253 304 255 238 234 224 227 253 242 192 209 192 209 193 182 182 183 172 159 162 171 195 240 266 277 280 276 281 290 295 300 305 305 307 311 314 320 324 324 321
184 176 198 235 177 217 229 213 224 202 215 226 217 229 219 191 188 177 181 185 179 177 167 178 205 223 233 247 251 259 276 285 288 289 296 302 306 309 310 317 321 332 333 317